Dewpoint
54 54 54 54 55 55 55 55 55 55 55 56 57 57 58 59 59 61 61 61 61 57 58 63 63 64 64 64 65 64 63 60 57 56 55 55 58 61 59 57 63 64 59 43 45 42 44 44 45 48 45 42 44 42 44 47 47 41 34 37 33 33 30 32 27 28 31 27 28 30 32 33 33 33 35 40 47 47 48 50 51 54 55 56 56 59 59 59
54 53 54 54 54 55 55 56 55 55 55 55 56 56 57 58 59 60 61 61 61 62 61 62 64 64 64 64 65 64 61 59 57 56 55 59 62 63 59 61 61 63 54 40 39 39 42 43 46 45 43 42 48 42 48 43 45 37 35 33 31 35 33 30 26 29 27 28 29 31 33 33 33 33 34 38 40 45 44 47 50 52 54 56 57 58 58 58
53 53 53 54 54 54 55 56 56 56 55 55 56 56 57 58 59 60 61 61 61 62 62 62 64 64 64 64 64 62 60 56 56 55 57 62 62 62 61 61 64 63 45 39 38 40 39 43 46 45 47 44 46 42 45 43 42 42 35 31 32 38 33 26 24 23 27 29 30 29 29 32 32 34 35 36 39 42 40 45 47 50 52 54 56 57 58 57
53 53 53 53 53 54 55 55 56 55 55 55 55 56 57 58 59 60 61 61 61 61 62 63 64 64 64 64 62 60 58 55 53 55 57 62 62 62 61 64 63 63 54 42 44 41 47 46 46 46 46 45 45 46 40 43 37 39 34 32 38 38 22 21 23 22 22 30 28 27 26 30 30 32 32 33 40 39 41 46 45 48 53 55 56 57 57 57
53 53 53 53 53 53 53 54 55 56 56 55 56 56 57 58 59 59 61 61 61 61 62 63 64 63 63 62 61 58 55 49 51 56 58 63 63 62 62 63 64 61 53 49 48 45 44 43 45 50 46 42 45 43 42 44 41 36 31 35 36 27 23 23 22 24 23 25 24 25 28 29 26 29 32 37 34 33 37 39 46 47 56 56 56 57 57 56
53 53 53 53 53 53 53 54 55 56 56 56 56 56 57 58 59 59 60 61 61 61 62 63 63 62 62 61 59 56 51 39 57 56 63 64 63 63 63 63 63 57 52 46 45 47 42 45 44 44 44 44 43 41 43 42 42 36 37 39 32 24 24 23 23 24 23 23 24 24 27 23 24 25 29 36 32 30 32 37 43 52 57 57 58 57 57 56
53 53 53 53 53 53 53 54 54 55 56 56 56 56 57 57 58 59 60 61 61 61 61 62 63 63 61 60 58 55 50 46 54 57 64 63 63 62 62 64 63 55 50 45 45 44 43 43 43 45 44 43 44 43 44 41 43 38 36 38 37 25 24 23 23 27 24 23 23 24 27 23 22 24 25 30 30 30 30 30 41 55 57 58 57 57 57 56
54 54 54 54 54 54 53 53 54 55 55 56 56 56 57 57 58 59 60 61 61 61 61 62 63 62 60 57 55 52 51 49 49 57 63 63 61 60 62 59 54 52 46 43 45 43 44 42 41 46 43 42 43 44 43 42 41 39 39 40 38 24 24 25 24 25 26 25 28 32 25 24 22 23 23 22 24 24 25 41 53 57 57 57 57 57 57 57
53 54 54 54 54 54 54 53 54 55 55 56 56 57 57 57 58 59 60 61 61 61 61 62 62 61 60 56 52 49 47 51 51 58 58 60 59 58 58 56 51 49 47 47 45 44 43 42 42 45 43 43 46 44 41 42 42 41 43 39 34 30 25 25 25 28 28 28 33 34 34 34 32 30 29 28 26 25 41 46 55 56 56 57 57 57 57 57
53 54 54 54 54 55 54 54 54 54 55 56 56 56 57 57 58 58 60 60 61 60 61 61 62 60 57 54 52 45 47 54 54 57 57 58 58 58 56 53 49 46 46 48 48 46 42 44 44 49 49 49 47 44 43 44 45 45 42 39 38 40 26 29 25 27 29 30 29 33 33 32 33 30 29 31 29 46 46 47 53 56 56 56 57 57 57 57
54 53 53 54 53 53 54 54 54 54 54 55 56 56 56 57 58 58 59 60 60 61 60 61 61 60 55 53 48 43 57 55 53 57 57 58 57 57 55 51 49 45 44 48 46 47 46 48 51 51 49 47 47 47 43 43 47 43 42 37 39 38 40 42 39 36 29 29 31 32 31 32 33 30 30 31 32 42 43 48 53 54 55 56 56 57 57 57
53 53 53 52 53 53 53 54 54 54 54 55 56 56 56 57 57 58 59 60 60 60 61 61 61 59 56 53 49 47 59 58 58 59 58 57 57 57 55 50 48 46 44 46 47 49 50 51 50 46 43 48 45 43 43 47 47 43 41 40 40 38 38 39 36 37 30 30 29 31 34 33 30 30 31 31 29 39 43 49 52 54 54 55 56 56 57 57
53 53 52 52 53 53 53 53 54 54 54 54 55 56 56 57 57 58 59 59 60 60 60 61 61 60 55 49 50 57 61 61 59 60 59 58 58 58 56 50 48 46 44 46 47 49 52 52 49 47 48 47 44 44 45 48 46 42 42 41 38 37 37 37 40 36 30 32 28 36 31 32 33 33 33 32 28 42 45 47 51 53 53 54 55 56 56 57
52 52 52 52 53 53 53 53 54 54 54 55 56 56 56 57 57 58 59 59 60 60 60 61 61 58 54 49 57 59 61 61 59 58 59 57 56 57 55 51 54 53 48 46 53 53 52 50 50 49 51 45 45 47 44 43 44 41 40 40 38 36 37 40 37 38 35 34 28 38 33 34 38 39 37 34 30 39 41 45 48 51 53 53 54 55 56 56
52 52 53 53 53 53 54 53 53 54 55 55 55 56 56 56 57 58 59 59 60 60 60 60 60 54 51 50 56 60 62 59 57 57 60 57 55 54 50 57 57 57 55 54 55 54 52 49 48 47 47 48 47 45 42 40 40 41 41 40 38 38 39 38 39 39 38 38 33 37 35 35 38 39 41 38 30 35 35 41 45 49 51 52 54 55 55 56
52 53 53 52 53 53 54 54 54 53 54 55 55 56 56 56 57 58 59 59 59 59 59 55 56 55 50 48 53 61 56 53 54 58 60 57 55 53 51 53 54 54 55 54 54 52 51 47 45 48 47 45 44 43 41 39 40 39 41 38 39 37 38 38 38 39 40 34 35 36 35 35 33 32 32 31 29 30 32 34 42 46 48 50 52 54 55 55
52 52 52 52 53 53 54 54 54 54 54 55 55 56 56 56 57 58 58 59 58 58 57 53 56 56 45 54 59 54 53 53 58 59 58 58 55 54 53 53 53 51 53 54 53 49 52 46 48 47 48 42 43 42 41 39 39 39 40 38 39 38 39 38 38 35 40 35 35 35 35 37 34 33 34 30 29 29 29 29 31 40 46 47 49 51 53 55
52 52 52 53 53 53 54 54 54 55 54 54 55 55 55 57 57 57 56 57 57 57 57 57 55 50 48 53 49 50 54 56 56 57 57 58 57 56 55 52 50 49 50 51 51 47 51 46 49 43 45 43 41 41 40 37 39 38 38 38 38 37 39 39 36 36 39 36 36 35 34 35 37 38 39 36 29 29 28 28 28 29 36 43 46 47 50 53
52 52 52 52 52 53 54 54 55 55 54 55 55 56 56 56 56 55 52 52 51 47 44 46 47 39 39 47 51 52 54 56 58 57 56 54 56 57 55 56 51 48 47 44 46 46 48 47 48 45 43 42 40 40 40 40 40 39 39 39 38 38 38 38 38 36 38 36 36 37 35 35 36 36 36 37 27 28 28 29 29 29 28 32 39 44 45 48
52 52 52 52 53 53 54 54 54 55 55 54 52 53 51 46 47 46 51 52 49 47 47 50 50 48 49 49 50 55 57 56 53 55 56 55 54 54 53 54 51 48 43 40 45 44 46 43 42 41 42 43 41 41 41 40 40 42 41 40 38 38 38 39 39 37 37 35 36 37 36 36 36 35 35 35 31 32 32 30 26 25 27 28 31 36 41 43
51 52 52 52 53 53 54 54 54 55 55 52 52 48 42 43 40 39 45 48 50 50 48 49 50 48 50 51 53 53 51 51 52 54 55 57 55 52 50 51 49 45 42 41 43 46 45 42 42 42 42 43 42 41 42 44 43 41 41 39 39 38 38 39 39 36 33 36 35 35 35 34 34 34 33 32 30 30 31 31 32 30 26 26 28 32 35 38
51 52 52 53 53 53 54 54 54 55 54 52 50 46 46 45 47 51 45 42 48 49 49 49 52 50 54 53 53 53 51 49 50 53 55 54 52 49 49 49 46 43 41 44 46 44 43 41 41 42 43 44 42 42 42 42 43 42 40 39 38 38 35 35 29 28 31 34 34 30 30 32 33 33 33 32 32 32 31 31 31 32 31 27 25 28 32 35
51 52 52 53 53 54 54 54 54 54 53 49 46 48 46 46 51 48 47 48 44 48 48 48 48 50 50 54 54 52 47 47 47 51 52 52 51 50 49 47 45 43 42 44 42 42 40 41 41 43 44 43 42 42 42 43 43 42 40 40 39 37 38 36 35 27 30 33 32 27 25 28 29 29 29 30 31 32 32 32 31 32 32 32 28 26 27 31
51 52 52 53 53 53 54 54 55 53 50 50 48 47 47 48 49 48 43 39 40 45 48 48 48 49 50 50 54 48 46 47 48 48 53 51 48 50 49 46 44 43 42 43 41 41 39 41 43 44 44 43 42 42 42 42 41 42 41 39 39 37 37 38 33 26 29 29 30 28 32 33 33 32 32 32 30 30 30 32 32 33 34 33 35 33 29 27
52 52 52 53 53 53 54 54 51 49 51 49 48 48 48 49 49 47 41 36 36 40 48 48 48 50 52 56 54 47 46 48 48 51 52 51 49 49 47 47 45 42 41 42 41 41 41 43 45 44 43 43 42 41 42 42 42 41 42 41 40 40 39 26 28 29 29 29 32 31 28 30 31 32 32 33 32 31 30 30 30 31 32 33 32 32 31 33
52 52 52 53 53 53 54 49 48 50 48 46 48 49 49 49 48 48 43 32 30 38 45 39 48 45 56 51 52 49 49 45 49 51 52 52 52 48 47 46 46 41 41 41 41 41 42 44 44 43 43 43 42 41 42 42 41 40 40 42 41 40 39 28 29 31 27 29 31 31 30 30 31 32 33 32 30 30 31 31 31 31 31 32 33 33 32 31
51 52 53 54 54 54 48 43 49 50 44 46 50 49 50 48 48 47 39 30 28 39 37 43 43 46 51 51 50 48 39 42 52 52 51 53 49 54 46 44 44 44 42 42 41 41 43 43 43 43 43 42 42 41 42 42 40 39 41 43 40 38 34 29 30 32 28 30 28 29 30 27 29 31 33 32 31 30 30 30 30 31 31 31 32 32 33 33
52 52 52 54 54 53 48 50 49 46 46 47 50 49 49 48 47 47 37 23 21 41 38 42 44 53 48 52 51 45 46 48 44 48 51 53 51 50 48 44 42 42 42 42 37 43 42 42 42 42 42 41 41 41 43 43 41 41 41 40 36 38 37 33 32 30 30 29 29 27 26 28 28 30 31 31 30 31 31 32 32 32 31 31 31 32 32 33
52 53 53 53 54 54 50 50 48 46 47 49 49 49 48 45 46 38 31 22 36 37 49 41 54 48 48 51 49 46 47 47 42 47 51 52 52 49 45 44 42 43 42 41 37 39 44 43 43 43 42 41 40 42 44 43 40 41 42 41 39 38 38 35 33 33 31 30 30 26 28 25 30 31 32 31 29 31 31 31 31 32 33 33 33 32 32 32
52 53 53 53 53 52 50 51 48 48 50 49 48 48 47 47 40 32 24 19 37 28 39 45 42 42 48 44 45 47 45 45 46 48 49 48 49 50 49 49 43 42 43 42 42 43 42 46 45 43 42 41 41 42 44 44 43 44 43 40 40 39 35 34 34 33 31 30 31 28 28 30 29 30 33 32 33 33 33 33 32 32 33 34 34 34 34 33
53 53 53 53 50 49 50 46 49 50 49 49 48 47 46 42 31 25 21 24 36 39 46 44 40 46 44 42 41 46 45 45 46 46 45 47 47 47 48 45 45 43 38 39 39 40 43 44 43 43 43 42 42 41 42 45 44 44 40 40 41 37 37 35 33 34 32 32 30 29 30 31 28 31 29 33 32 32 31 31 32 32 33 33 33 34 34 33
53 53 53 52 51 51 47 45 50 49 48 47 47 46 42 28 29 22 22 36 26 36 38 39 42 41 43 43 42 43 43 44 45 44 43 44 43 43 44 40 43 36 36 38 37 37 40 42 41 41 42 42 41 42 40 43 44 43 41 42 37 33 34 32 33 32 32 32 32 30 32 30 32 34 32 35 32 32 32 32 31 31 30 31 32 33 33 34
52 52 53 52 52 50 48 50 50 48 47 47 45 43 35 28 19 27 30 29 25 39 37 42 41 40 42 41 41 42 44 40 45 43 44 44 43 43 45 44 44 41 34 39 38 37 37 40 39 41 41 43 42 40 37 39 43 42 39 39 35 32 32 31 31 32 32 32 30 30 29 30 33 34 34 35 35 36 35 35 33 32 32 33 34 35 34 34
53 53 51 52 51 50 50 51 49 49 48 47 43 38 33 24 22 31 29 29 26 37 42 41 40 40 41 39 40 42 40 42 43 43 43 42 43 40 43 43 44 42 41 39 36 37 33 34 39 41 40 43 41 41 40 40 41 41 41 40 36 33 31 30 32 30 31 31 29 27 28 28 29 32 28 30 32 33 32 33 35 35 35 35 35 34 33 33
53 52 51 51 51 51 50 50 49 48 47 46 40 34 24 23 29 26 29 31 31 37 39 42 39 38 39 40 42 43 42 39 43 42 42 41 39 40 41 42 43 41 40 36 36 36 36 36 41 42 39 43 41 41 41 40 39 39 40 41 38 35 33 29 28 27 27 27 27 27 31 28 31 32 32 32 32 31 31 30 31 30 30 30 30 31 31 32
52 50 51 49 49 50 51 50 49 48 46 43 34 27 27 27 27 30 29 34 34 36 39 41 40 37 38 39 41 41 44 40 42 41 41 41 41 40 42 43 43 40 39 35 38 35 36 35 41 41 41 42 41 40 39 41 35 39 40 37 38 35 31 27 24 24 27 26 30 23 29 31 31 32 33 33 32 32 31 30 29 29 29 28 29 30 31 32
49 49 46 47 48 50 51 50 49 48 46 40 33 27 30 30 32 33 36 35 34 39 40 33 34 36 35 35 38 40 41 41 41 40 37 41 40 41 40 42 43 40 39 36 36 36 34 34 41 40 39 41 39 41 40 41 40 38 37 38 37 38 35 32 26 18 20 24 21 25 30 29 26 28 29 28 28 28 28 28 29 29 28 25 28 31 32 31
47 47 47 46 49 50 51 50 48 46 44 38 32 33 28 28 34 36 36 36 36 38 38 35 35 37 35 36 36 39 40 38 39 39 37 40 36 42 40 41 42 40 39 38 36 35 38 33 36 36 39 38 39 41 38 39 39 39 38 41 37 33 33 33 27 21 22 21 14 20 22 25 29 29 28 27 25 25 27 28 27 27 26 25 26 29 30 31
46 45 39 43 49 50 50 50 48 45 40 33 31 32 28 31 37 35 37 37 37 38 37 33 34 35 36 35 37 39 40 36 40 38 37 39 36 41 40 40 41 41 39 38 36 36 37 34 35 38 39 38 38 39 36 38 36 37 40 38 37 35 34 30 30 25 23 20 15 17 18 23 27 29 29 28 28 27 27 28 28 27 26 24 25 28 29 29
43 40 36 43 49 50 50 49 46 42 37 31 32 31 34 32 36 37 37 37 34 36 32 29 30 34 35 35 38 37 40 39 40 39 38 39 39 43 40 41 40 41 39 38 36 38 34 36 33 35 37 40 37 39 37 38 36 35 39 38 36 32 33 34 30 28 26 17 16 11 16 22 25 28 28 28 28 28 28 28 30 31 30 28 26 27 28 29
43 38 37 45 49 50 49 46 40 36 35 34 34 31 30 31 36 36 38 38 37 39 35 32 32 33 33 35 38 40 39 39 39 38 38 39 39 37 42 40 41 40 39 37 37 36 32 33 33 34 36 38 37 40 39 39 38 37 37 37 37 33 32 32 31 29 23 20 19 16 22 18 26 28 28 28 28 28 29 29 29 30 30 31 31 28 27 28
38 33 35 45 49 49 45 36 32 34 34 32 30 33 32 38 37 38 37 37 35 36 38 34 33 32 32 35 38 40 39 39 38 38 38 38 40 40 42 41 40 40 37 35 35 37 34 34 35 33 36 37 37 34 35 39 39 37 38 36 37 34 33 31 30 31 26 29 22 19 18 24 27 28 28 28 28 28 29 30 30 30 31 30 30 28 27 28
38 34 44 47 49 45 41 32 34 33 31 34 36 36 37 36 35 36 37 37 35 37 35 34 32 33 34 36 35 39 40 38 39 37 38 39 39 40 42 41 40 40 38 36 37 34 38 34 34 33 34 35 36 36 38 37 38 36 36 34 37 35 34 33 32 27 31 25 27 25 23 27 26 29 30 30 29 29 28 28 29 29 29 29 29 27 26 27
37 36 39 46 48 45 37 29 29 31 32 35 35 35 37 35 35 34 34 37 36 34 33 33 35 36 33 37 36 36 39 35 39 38 37 39 38 41 42 41 41 39 37 35 34 36 32 34 34 32 32 32 34 35 35 36 36 36 36 36 37 37 35 29 26 23 27 31 30 29 27 27 28 29 29 26 23 21 20 22 27 28 29 30 30 29 28 28
37 39 40 43 46 43 33 34 32 31 32 32 32 31 33 33 36 37 36 35 37 35 34 34 34 36 33 37 35 36 36 36 36 40 38 39 38 41 42 41 41 39 38 39 38 37 32 34 33 31 27 27 26 28 30 33 36 36 36 36 37 37 34 32 31 26 28 28 30 25 29 25 26 28 26 24 25 22 20 20 22 28 29 29 31 33 33 33
33 28 33 37 40 39 38 38 37 34 32 32 31 32 34 32 34 36 36 35 37 36 36 36 37 36 34 34 33 32 32 36 36 37 39 38 38 39 42 41 41 40 39 39 37 35 33 34 33 33 31 30 30 32 34 36 36 35 35 36 36 37 36 35 33 30 29 28 30 31 29 25 23 23 25 26 26 22 19 20 21 23 25 26 28 31 32 33
35 30 31 28 35 35 35 36 35 35 32 34 30 32 30 32 34 34 37 32 35 35 36 36 35 34 32 34 33 33 32 33 35 37 38 38 39 40 42 42 40 40 39 37 37 34 32 32 33 33 32 31 34 35 36 36 35 35 35 35 36 36 35 34 32 31 32 28 27 30 28 27 28 29 28 26 26 23 23 23 22 22 24 26 28 29 33 31
31 32 36 38 33 29 32 33 35 33 33 33 31 33 32 31 31 31 35 36 37 36 33 35 36 35 34 34 34 32 32 33 33 33 37 37 39 40 42 42 40 39 37 36 37 34 33 31 33 33 33 32 36 36 36 36 35 36 36 36 35 36 35 33 33 34 30 30 29 31 30 28 30 30 29 27 26 23 21 20 22 22 21 21 21 23 26 28
34 33 33 36 32 34 35 34 33 32 32 31 32 31 30 31 31 33 33 33 34 33 35 31 32 35 35 36 35 33 33 31 31 33 33 35 38 40 39 41 42 38 37 35 35 34 32 31 32 33 32 32 34 35 36 35 35 35 35 36 36 36 35 35 34 34 33 31 32 32 30 30 31 31 31 30 30 27 25 24 21 21 21 22 22 22 24 26
30 30 30 35 35 34 33 33 33 32 30 31 28 29 29 31 31 32 33 33 30 33 36 33 33 35 35 36 35 33 34 35 35 33 36 37 37 40 39 40 39 39 40 36 36 37 34 31 33 32 31 31 32 34 36 35 35 34 35 36 36 36 36 36 35 35 34 33 33 33 31 31 31 32 32 33 33 32 30 27 23 23 23 23 22 21 22 24
33 32 33 32 31 32 31 30 29 29 28 29 29 31 32 31 30 33 33 36 34 31 33 32 34 36 36 36 36 35 36 36 36 37 38 39 38 40 39 38 41 38 39 37 36 36 36 32 33 31 30 29 30 32 34 35 34 34 34 35 35 35 35 35 35 35 34 33 33 33 32 32 33 32 33 33 32 32 31 32 30 30 27 26 26 25 23 23
32 32 34 32 29 32 29 28 28 29 25 28 31 31 31 31 33 33 30 35 36 36 36 35 35 35 35 35 34 36 38 39 38 39 41 43 42 41 41 42 41 39 38 37 39 34 35 33 31 30 29 29 31 32 33 33 32 32 32 34 35 36 36 36 36 36 36 35 33 32 32 34 34 33 33 32 32 32 32 31 32 32 33 32 31 30 29 28